This is the latest recevied weather packets stored in our database for station/object OH6HPS. If no packets are shown the sender has not sent any weather packets the latest 1 day(s).
| Time | Temp. | Humidity | Pressure | Rain* | Wind** | Luminosity | Snow |
|---|---|---|---|---|---|---|---|
| 1778037919 | -2.78° C | 93% | 1010.4 hPa | 0 mm | 0 m/s | 25 W/m² | - |
| 1778037318 | -2.78° C | 92% | 1010.2 hPa | 0 mm | 0 m/s | 16 W/m² | - |
| 1778036717 | -2.78° C | 93% | 1010.1 hPa | 0 mm | 0 m/s | 14 W/m² | - |
| 1778036117 | -2.78° C | 93% | 1010 hPa | 0 mm | 0.45 m/s, 233° | 12 W/m² | - |
| 1778035517 | -3.33° C | 93% | 1009.9 hPa | 0 mm | 0 m/s | 11 W/m² | - |
| 1778034916 | -3.33° C | 93% | 1009.9 hPa | 0 mm | 0 m/s | 7 W/m² | - |
| 1778034317 | -3.33° C | 93% | 1009.8 hPa | 0 mm | 0 m/s | 5 W/m² | - |
| 1778033717 | -3.33° C | 93% | 1009.7 hPa | 0 mm | 0 m/s | 0 W/m² | - |
| 1778033116 | -3.33° C | 92% | 1009.7 hPa | 0 mm | 0 m/s | 0 W/m² | - |
| 1778032516 | -3.33° C | 91% | 1009.6 hPa | 0 mm | 0 m/s | 0 W/m² | - |
| 1778031915 | -3.33° C | 91% | 1009.5 hPa | 0 mm | 0 m/s | 0 W/m² | - |
| 1778031316 | -3.33° C | 91% | 1009.3 hPa | 0 mm | 0 m/s | 0 W/m² | - |
| 1778030715 | -3.33° C | 91% | 1009.3 hPa | 0 mm | 0 m/s | 0 W/m² | - |
| 1778030128 | -3.33° C | 91% | 1009.1 hPa | 0 mm | 0 m/s | 0 W/m² | - |
| 1778029515 | -2.78° C | 91% | 1009.1 hPa | 0 mm | 0 m/s | 0 W/m² | - |
| 1778028914 | -2.78° C | 91% | 1009.1 hPa | 0 mm | 0 m/s | 0 W/m² | - |
| 1778028314 | -2.78° C | 91% | 1009 hPa | 0 mm | 0 m/s | 0 W/m² | - |
| 1778027714 | -2.78° C | 91% | 1009 hPa | 0 mm | 0 m/s | 0 W/m² | - |
| 1778027113 | -2.78° C | 90% | 1008.9 hPa | 0 mm | 0 m/s | 0 W/m² | - |
| 1778026514 | -2.78° C | 90% | 1008.8 hPa | 0 mm | 0 m/s | 0 W/m² | - |
| 1778025913 | -2.22° C | 90% | 1008.7 hPa | 0 mm | 0 m/s | 0 W/m² | - |
| 1778025314 | -2.22° C | 89% | 1008.7 hPa | 0 mm | 0 m/s | 0 W/m² | - |
| 1778024714 | -2.22° C | 89% | 1008.7 hPa | 0 mm | 0 m/s | 0 W/m² | - |
| 1778024112 | -2.22° C | 90% | 1008.8 hPa | 0 mm | 0 m/s | 0 W/m² | - |
| 1778023513 | -2.22° C | 89% | 1008.6 hPa | 0 mm | 0 m/s | 0 W/m² | - |
* Rain latest hour (hover to see other rain measurements)
** Current wind speed in m/s (hover to see current wind gust speed)